Location: Brad
(46.1333°N, 22.7833°E)
Time: 19:56:57
(UTC+00:00)

BREEZE-M DEB (TANK) - Pass Details

Date: 03 February 2023
Orbit: 328 x 16571 km, 49.5° (Epoch: 23 March)

Event Time Altitude Azimuth Distance (km) Brightness Sun altitude
Rises 17:14:05 0° 234° (SW) 10,328 9.8 -17.2°
Reaches altitude 10° 17:24:17 10° 235° (SW) 6,778 8.7 -18.9°
Maximum altitude 17:38:42 70° 156° (SSE) 1,121 3.7 -21.4°
Enters shadow 17:40:12 45° 88° (E) 1,151 3.4 -21.7°
